When you browse on this site, cookies collect data to enhance your experience and personalize the content and advertising you see.
Visit our Privacy Policy to learn more. By continuing to use the site, you agree to this use of cookies and data.
  • In Latvia
  • List of Countries
  • For 7 days
  • Water Temperature
  • Satellite Maps
  • Weather Map
  • Weather Widgets
  • user-avatar
    Login

    Hourly Weather Canberra

    Today, 20 February, Wednesday

    Time Temperature Precipitation Wind Pressure Humidity
    00:00 +14°C° 0 mm 3 mps 707 mmHg 83%
    01:00 +14°C° 0 mm 3 mps 707 mmHg 83%
    02:00 +15°C° 0 mm 2 mps 707 mmHg 85%
    03:00 +15°C° 0 mm 2 mps 707 mmHg 86%
    04:00 +15°C° 0 mm 1 mps 706 mmHg 86%
    05:00 +15°C° 0 mm 1 mps 707 mmHg 85%
    06:00 +16°C° 0 mm 1 mps 707 mmHg 83%
    07:00 +16°C° 0 mm 1 mps 707 mmHg 81%
    08:00 +19°C° 0 mm 1 mps 707 mmHg 73%
    09:00 +20°C° 0 mm 1 mps 707 mmHg 66%
    10:00 +24°C° 0 mm 1 mps 708 mmHg 56%
    11:00 +25°C° 0 mm 1 mps 708 mmHg 47%
    12:00 +27°C° 0 mm 2 mps 708 mmHg 38%
    13:00 +29°C° 0 mm 2 mps 707 mmHg 29%
    14:00 +29°C° 0 mm 2 mps 707 mmHg 27%
    15:00 +30°C° 0 mm 2 mps 707 mmHg 24%
    16:00 +30°C° 0 mm 2 mps 707 mmHg 21%
    17:00 +28°C° 0 mm 2 mps 707 mmHg 34%
    18:00 +25°C° 0 mm 3 mps 707 mmHg 47%
    19:00 +21°C° 0 mm 4 mps 707 mmHg 60%
    20:00 +20°C° 0 mm 4 mps 707 mmHg 68%
    21:00 +19°C° 0 mm 4 mps 708 mmHg 77%
    22:00 +18°C° 0 mm 4 mps 708 mmHg 86%
    23:00 +17°C° 0 mm 3 mps 708 mmHg 85%

    Tomorrow, 21 February, Thursday

    Time Temperature Precipitation Wind Pressure Humidity
    00:00 +17°C° 0 mm 3 mps 708 mmHg 85%
    01:00 +17°C° 0 mm 3 mps 709 mmHg 85%
    02:00 +17°C° 0 mm 3 mps 709 mmHg 85%
    03:00 +17°C° 0 mm 2 mps 709 mmHg 85%
    04:00 +17°C° 0 mm 2 mps 709 mmHg 85%
    05:00 +17°C° 0 mm 2 mps 709 mmHg 85%
    06:00 +17°C° 0 mm 2 mps 709 mmHg 85%
    07:00 +17°C° 0 mm 2 mps 709 mmHg 85%
    08:00 +18°C° 0 mm 2 mps 710 mmHg 76%
    09:00 +20°C° 0 mm 2 mps 710 mmHg 67%
    10:00 +23°C° 0 mm 2 mps 711 mmHg 58%
    11:00 +25°C° 0 mm 3 mps 711 mmHg 52%
    12:00 +26°C° 0 mm 3 mps 711 mmHg 46%
    13:00 +28°C° 0 mm 3 mps 711 mmHg 40%
    14:00 +27°C° 0 mm 4 mps 710 mmHg 42%
    15:00 +27°C° 0 mm 4 mps 710 mmHg 45%
    16:00 +26°C° 0 mm 5 mps 710 mmHg 47%
    17:00 +23°C° 0 mm 5 mps 710 mmHg 58%
    18:00 +20°C° 0 mm 4 mps 710 mmHg 68%
    19:00 +17°C° 0 mm 4 mps 710 mmHg 79%
    20:00 +17°C° 0 mm 4 mps 711 mmHg 81%
    21:00 +15°C° 0 mm 4 mps 712 mmHg 83%
    22:00 +15°C° 0 mm 4 mps 713 mmHg 85%
    23:00 +14°C° 0 mm 3 mps 713 mmHg 85%

    Day after tomorrow, 22 February, Friday

    Time Temperature Precipitation Wind Pressure Humidity
    00:00 +14°C° 0 mm 3 mps 713 mmHg 85%
    01:00 +13°C° 0 mm 3 mps 713 mmHg 85%
    02:00 +13°C° 0 mm 3 mps 713 mmHg 86%
    03:00 +13°C° 0 mm 2 mps 713 mmHg 88%
    04:00 +13°C° 0 mm 2 mps 712 mmHg 89%
    05:00 +13°C° 0 mm 2 mps 713 mmHg 85%
    06:00 +13°C° 0 mm 2 mps 713 mmHg 81%
    07:00 +12°C° 0 mm 3 mps 713 mmHg 78%
    08:00 +16°C° 0 mm 3 mps 714 mmHg 65%
    09:00 +19°C° 0 mm 3 mps 714 mmHg 52%
    10:00 +21°C° 0 mm 4 mps 715 mmHg 39%
    11:00 +23°C° 0 mm 4 mps 715 mmHg 35%
    12:00 +25°C° 0 mm 4 mps 715 mmHg 32%
    13:00 +27°C° 0 mm 4 mps 714 mmHg 29%
    14:00 +26°C° 0 mm 4 mps 714 mmHg 32%
    15:00 +26°C° 0 mm 5 mps 714 mmHg 35%
    16:00 +26°C° 0 mm 5 mps 713 mmHg 38%
    17:00 +22°C° 0 mm 5 mps 713 mmHg 48%
    18:00 +19°C° 0 mm 5 mps 713 mmHg 59%
    19:00 +16°C° 0 mm 5 mps 713 mmHg 69%
    20:00 +15°C° 0 mm 4 mps 714 mmHg 75%
    21:00 +14°C° 0 mm 3 mps 714 mmHg 81%
    22:00 +12°C° 0 mm 3 mps 715 mmHg 87%
    23:00 +12°C° 0 mm 3 mps 715 mmHg 89%

    23 February, Saturday

    Time Temperature Precipitation Wind Pressure Humidity
    00:00 +13°C° 0 mm 2 mps 714 mmHg 91%
    01:00 +12°C° 0 mm 2 mps 714 mmHg 92%
    02:00 +12°C° 0 mm 2 mps 714 mmHg 92%
    03:00 +10°C° 0 mm 2 mps 714 mmHg 93%
    04:00 +10°C° 0 mm 2 mps 713 mmHg 93%
    05:00 +12°C° 0 mm 2 mps 714 mmHg 86%
    06:00 +13°C° 0 mm 2 mps 714 mmHg 80%
    07:00 +13°C° 0 mm 3 mps 715 mmHg 74%
    08:00 +17°C° 0 mm 3 mps 715 mmHg 60%
    09:00 +19°C° 0 mm 3 mps 716 mmHg 47%
    10:00 +22°C° 0 mm 4 mps 716 mmHg 34%
    11:00 +25°C° 0 mm 4 mps 716 mmHg 31%
    12:00 +26°C° 0 mm 4 mps 716 mmHg 28%
    13:00 +28°C° 0 mm 5 mps 716 mmHg 24%
    14:00 +27°C° 0 mm 5 mps 715 mmHg 27%
    15:00 +27°C° 0 mm 5 mps 715 mmHg 29%
    16:00 +27°C° 0 mm 6 mps 714 mmHg 31%
    17:00 +23°C° 0 mm 5 mps 715 mmHg 43%
    18:00 +20°C° 0 mm 5 mps 715 mmHg 54%
    19:00 +16°C° 0 mm 5 mps 715 mmHg 66%
    20:00 +16°C° 0 mm 5 mps 716 mmHg 70%
    21:00 +15°C° 0 mm 5 mps 716 mmHg 74%
    22:00 +14°C° 0 mm 4 mps 717 mmHg 78%
    23:00 +14°C° 0 mm 5 mps 717 mmHg 76%

    24 February, Sunday

    Time Temperature Precipitation Wind Pressure Humidity
    00:00 +14°C° 0 mm 5 mps 717 mmHg 75%
    01:00 +13°C° 0 mm 5 mps 716 mmHg 73%
    02:00 +12°C° 0 mm 5 mps 716 mmHg 75%
    03:00 +12°C° 0 mm 5 mps 716 mmHg 77%
    04:00 +11°C° 0 mm 4 mps 716 mmHg 79%
    05:00 +10°C° 0 mm 5 mps 716 mmHg 76%
    06:00 +12°C° 0 mm 5 mps 717 mmHg 73%
    07:00 +12°C° 0 mm 5 mps 717 mmHg 71%
    08:00 +14°C° 0 mm 6 mps 718 mmHg 62%
    09:00 +17°C° 0 mm 6 mps 718 mmHg 53%
    10:00 +20°C° 0 mm 6 mps 718 mmHg 44%
    11:00 +21°C° 0 mm 6 mps 718 mmHg 40%
    12:00 +22°C° 0 mm 6 mps 718 mmHg 36%
    13:00 +25°C° 0 mm 5 mps 717 mmHg 33%
    14:00 +23°C° 0 mm 5 mps 717 mmHg 35%
    15:00 +23°C° 0 mm 5 mps 717 mmHg 36%
    16:00 +23°C° 0 mm 5 mps 717 mmHg 38%
    17:00 +20°C° 0 mm 5 mps 717 mmHg 49%
    18:00 +17°C° 0 mm 5 mps 717 mmHg 59%
    19:00 +14°C° 0 mm 4 mps 717 mmHg 69%
    20:00 +13°C° 0 mm 4 mps 717 mmHg 76%
    21:00 +12°C° 0 mm 3 mps 718 mmHg 83%
    22:00 +11°C° 0 mm 3 mps 718 mmHg 90%
    23:00 +11°C° 0 mm 3 mps 718 mmHg 89%

    25 February, Monday

    Time Temperature Precipitation Wind Pressure Humidity
    00:00 +11°C° 0 mm 3 mps 717 mmHg 89%
    01:00 +11°C° 0 mm 3 mps 717 mmHg 88%
    02:00 +11°C° 0 mm 3 mps 717 mmHg 87%
    03:00 +11°C° 0 mm 3 mps 717 mmHg 87%
    04:00 +11°C° 0 mm 3 mps 717 mmHg 86%
    05:00 +11°C° 0 mm 3 mps 717 mmHg 85%
    06:00 +11°C° 0 mm 3 mps 717 mmHg 83%
    07:00 +11°C° 0 mm 3 mps 717 mmHg 82%
    08:00 +14°C° 0 mm 3 mps 718 mmHg 70%
    09:00 +18°C° 0 mm 3 mps 718 mmHg 59%
    10:00 +20°C° 0 mm 3 mps 718 mmHg 47%
    11:00 +22°C° 0 mm 3 mps 718 mmHg 42%
    12:00 +25°C° 0 mm 3 mps 717 mmHg 37%
    13:00 +26°C° 0 mm 3 mps 717 mmHg 32%
    14:00 +26°C° 0 mm 4 mps 716 mmHg 33%
    15:00 +26°C° 0 mm 4 mps 716 mmHg 34%
    16:00 +26°C° 0 mm 4 mps 715 mmHg 35%
    17:00 +23°C° 0 mm 4 mps 715 mmHg 45%
    18:00 +20°C° 0 mm 4 mps 715 mmHg 55%
    19:00 +18°C° 0 mm 3 mps 715 mmHg 65%
    20:00 +16°C° 0 mm 3 mps 715 mmHg 74%
    21:00 +15°C° 0 mm 2 mps 715 mmHg 84%
    22:00 +13°C° 0 mm 1 mps 715 mmHg 93%
    23:00 +13°C° 0 mm 1 mps 715 mmHg 93%
    Show more